Location: Izdebno
(52.6670°N, 16.2170°E)
Time: 12:00:27
(UTC+02:00)

A-11 Canister half - Pass Details

Date: 26 February 2024
Orbit: 1525 x 1683 km, 47.3° (Epoch: 24 April)

Event Time Altitude Azimuth Distance (km) Brightness Sun altitude
Exits shadow 03:50:47 12° 184° (S) 3,567 10.7 -27.5°
Drops below altitude 10° 03:51:27 10° 181° (S) 3,712 10.8 -27.4°
Sets 03:55:24 0° 167° (SSE) 4,711 11.5 -26.8°
